Hourly Data Report for January 16, 2022

CLYDE RIVER A
NUNAVUT
Current Station Operator: NAVCAN

70°29'09.000" N
68°31'01.000" W
26.50 m
2400804
71090
YCY

Download Data

Hourly Data (January 2022)
Hourly Data Report for January 16, 2022
TIME
LST
Temp Definition
°C
Dew Point Definition
°C
Rel Hum Definition
%
Precip. Amount Definition
mm

Wind Dir Definition
10's deg

Wind Spd Definition
km/h
Visibility Definition
km
Stn Press Definition
kPa
Hmdx Definition


Wind Chill Definition


Weather Definition


00:00 -32.3 -35.8 72 0.0 29 8 16.1 100.80   -41 LegendNANA
01:00 -31.1 -34.4 74 0.0 27 11 16.1 100.91   -41 LegendNANA
02:00 -30.7 -33.8 75 0.0 27 9 16.1 100.88   -39 LegendNANA
03:00 -30.7 -34.1 73 0.0 28 11 16.1 100.82   -41 LegendNANA
04:00 -29.7 -32.7 76 0.0 27 8 16.1 100.78   -38 LegendNANA
05:00 -28.5 -31.5 76 0.0 27 11 16.1 100.74   -38 LegendNANA
06:00 -29.7 -33.1 73 0.0 29 15 16.1 100.67   -41 LegendNANA
07:00 -28.6 -31.6 76 0.0 31 18 16.1 100.60   -41 LegendNANA
08:00 -26.5 -29.4 77 0.0 30 24 16.1 100.50   -40 LegendNANA
09:00 -26.1 -29.2 76 0.0 29 26 16.1 100.39   -40 LegendNANA
10:00 -24.1 -26.9 78 0.0 29 28 16.1 100.27   -38 LegendNANA
11:00 -22.7 -25.4 79 0.0 30 24 16.1 100.21   -35 Snow
12:00 -22.7 -25.4 79 0.0 31 28 6.4 100.09   -36 Snow
13:00 -22.3 -24.7 81 0.0 31 41 0.4 99.96   -37 Heavy Snow,Blowing Snow
14:00 -22.4 -25.0 80 0.0 31 34 1.6 99.92   -36 Haze
15:00 -22.0 -24.6 80 0.0 30 34 2.8 99.86   -36 Fog
16:00 -21.7 -24.3 80 0.0 30 30 4.0 99.78   -35 Snow
17:00 -22.2 -25.1 78 0.0 30 32 8.1 99.70   -36 Haze
18:00 -22.1 -25.0 78 0.0 31 35 4.8 99.64   -36 Haze
19:00 -22.4 -25.1 79 0.0 31 41 2.0 99.62   -37 Blowing Snow
20:00 -22.9 -25.7 78 0.0 31 28 16.1 99.57   -36 LegendNANA
21:00 -25.1 -28.3 75 0.0 28 17 16.1 99.52   -36 LegendNANA
22:00 -26.0 -29.7 72 0.0 24 5 16.1 99.48   -31 LegendNANA
23:00 -25.1 -29.4 68 0.0 23 9 16.1 99.51   -33 LegendNANA

Notes on Data Quality.

Legend

  • E = Estimated
  • M = Missing
  • NA = Not Available*
  • [empty] = Indicates an unobserved value
Date modified: